This is the latest recevied weather packets stored in our database for station/object KB9HUO. If no packets are shown the sender has not sent any weather packets the latest 10 day(s).
| Time | Temp. | Humidity | Pressure | Rain* | Wind** | Luminosity | Snow |
|---|---|---|---|---|---|---|---|
| 1788457593 | 35.56° C | 55% | 1017.6 hPa | 0 mm | - | 686 W/m² | - |
| 1788457288 | 35.56° C | 54% | 1017.4 hPa | 0 mm | - | 686 W/m² | - |
| 1788456983 | 35° C | 54% | 1017.6 hPa | 0 mm | - | 688 W/m² | - |
| 1788456680 | 35° C | 56% | 1017.6 hPa | 0 mm | - | 684 W/m² | - |
| 1788456406 | 35° C | 57% | 1017.6 hPa | 0 mm | - | 683 W/m² | - |
| 1788456075 | 35.56° C | 55% | 1017.6 hPa | 0 mm | - | 684 W/m² | - |
| 1788455774 | 35.56° C | 58% | 1017.7 hPa | 0 mm | - | 680 W/m² | - |
| 1788455470 | 35.56° C | 55% | 1017.9 hPa | 0 mm | - | 680 W/m² | - |
| 1788455169 | 35° C | 59% | 1018 hPa | 0 mm | - | 676 W/m² | - |
| 1788454865 | 35° C | 56% | 1018.1 hPa | 0 mm | - | 670 W/m² | - |
| 1788454561 | 35.56° C | 56% | 1018 hPa | 0 mm | - | 669 W/m² | - |
| 1788454257 | 35.56° C | 57% | 1018.2 hPa | 0 mm | - | 661 W/m² | - |
| 1788453952 | 35° C | 58% | 1018.1 hPa | 0 mm | - | 651 W/m² | - |
| 1788453649 | 35° C | 58% | 1018.2 hPa | 0 mm | - | 650 W/m² | - |
| 1788453348 | 35° C | 56% | 1018.3 hPa | 0 mm | - | 643 W/m² | - |
| 1788453044 | 35° C | 57% | 1018.2 hPa | 0 mm | - | 636 W/m² | - |
| 1788452741 | 35° C | 59% | 1018.2 hPa | 0 mm | - | 631 W/m² | - |
| 1788452436 | 34.44° C | 57% | 1018.3 hPa | 0 mm | - | 625 W/m² | - |
| 1788452132 | 33.89° C | 58% | 1018.3 hPa | 0 mm | - | 617 W/m² | - |
| 1788451827 | 34.44° C | 57% | 1018.5 hPa | 0 mm | - | 611 W/m² | - |
| 1788451526 | 34.44° C | 58% | 1018.3 hPa | 0 mm | - | 603 W/m² | - |
| 1788451221 | 34.44° C | 58% | 1018.4 hPa | 0 mm | - | 595 W/m² | - |
| 1788450920 | 33.89° C | 59% | 1018.4 hPa | 0 mm | - | 585 W/m² | - |
| 1788450616 | 33.89° C | 59% | 1018.2 hPa | 0 mm | - | 582 W/m² | - |
| 1788450312 | 33.33° C | 61% | 1018.4 hPa | 0 mm | - | 568 W/m² | - |
* Rain latest hour (hover to see other rain measurements)
** Current wind speed in m/s (hover to see current wind gust speed)